Location: Batang Balui
(2.7000°N, 113.7833°E)
Time: 00:24:33
(UTC+00:00)

Cosmos 1833 - Pass Details

Date: 03 December 2021
Orbit: 830 x 868 km, 70.9° (Epoch: 27 January)

Event Time Altitude Azimuth Distance (km) Brightness Sun altitude
Rises 11:00:08 0° 184° (S) 3,385 7.7 -11.5°
Reaches altitude 10° 11:02:40 10° 178° (S) 2,445 6.9 -12.1°
Maximum altitude 11:08:01 46° 105° (ESE) 1,099 4.5 -13.3°
Enters shadow 11:12:16 16° 37° (NE) 2,056 5.7 -14.3°
